Time,TemperatureF,DewpointF,PressureIn,WindDirection,WindDirectionDegrees,WindSpeedMPH,WindSpeedGustMPH,Humidity,HourlyPrecipIn,Conditions,Clouds,dailyrainin,SolarRadiationWatts/m^2,SoftwareType,DateUTC
2013-03-25 00:11:00,34.4,34.0,29.57,SSE,152,5.0,-999.0,98,-99.99,,,1.17,0,weatherlink.com 1.10,2013-03-25 04:11:00,
2013-03-25 00:26:00,34.4,34.0,29.57,SSE,152,4.0,-999.0,98,-99.99,,,1.17,0,weatherlink.com 1.10,2013-03-25 04:26:00,
2013-03-25 00:41:00,34.4,34.0,29.57,SSE,152,2.0,-999.0,98,-99.99,,,1.17,0,weatherlink.com 1.10,2013-03-25 04:41:00,
2013-03-25 00:56:00,34.4,34.0,29.57,SSE,152,3.0,-999.0,98,-99.99,,,1.17,0,weatherlink.com 1.10,2013-03-25 04:56:00,
2013-03-25 01:11:00,34.4,34.0,29.56,SSW,194,3.0,-999.0,98,-99.99,,,1.17,0,weatherlink.com 1.10,2013-03-25 05:11:00,
2013-03-25 01:26:00,34.4,34.0,29.56,SW,215,6.0,-999.0,98,-99.99,,,0.00,0,weatherlink.com 1.10,2013-03-25 05:26:00,
2013-03-25 01:41:00,34.4,34.0,29.56,SW,215,3.0,-999.0,98,-99.99,,,0.00,0,weatherlink.com 1.10,2013-03-25 05:41:00,
2013-03-25 01:56:00,34.4,34.0,29.56,SW,215,7.0,-999.0,98,-99.99,,,0.00,0,weatherlink.com 1.10,2013-03-25 05:56:00,
2013-03-25 02:11:00,34.4,34.0,29.56,SW,222,2.0,-999.0,98,-99.99,,,0.00,0,weatherlink.com 1.10,2013-03-25 06:11:00,
2013-03-25 02:26:00,34.4,34.0,29.56,West,262,4.0,-999.0,98,-99.99,,,0.00,0,weatherlink.com 1.10,2013-03-25 06:26:00,
2013-03-25 02:42:00,33.6,33.0,29.57,West,277,5.0,-999.0,98,-99.99,,,0.01,0,weatherlink.com 1.10,2013-03-25 06:42:00,
2013-03-25 02:56:00,32.6,32.0,29.57,West,275,6.0,-999.0,98,-99.99,,,0.01,0,weatherlink.com 1.10,2013-03-25 06:56:00,
2013-03-25 03:11:00,31.9,31.0,29.58,WNW,284,9.0,-999.0,98,-99.99,,,0.01,0,weatherlink.com 1.10,2013-03-25 07:11:00,
2013-03-25 03:26:00,31.4,31.0,29.57,West,268,6.0,-999.0,98,-99.99,,,0.01,0,weatherlink.com 1.10,2013-03-25 07:26:00,
2013-03-25 03:41:00,31.1,31.0,29.57,West,276,4.0,-999.0,98,-99.99,,,0.01,0,weatherlink.com 1.10,2013-03-25 07:41:00,
2013-03-25 03:56:00,30.6,30.0,29.57,West,271,4.0,-999.0,98,-99.99,,,0.01,0,weatherlink.com 1.10,2013-03-25 07:56:00,
2013-03-25 04:11:00,30.2,30.0,29.58,West,271,2.0,-999.0,98,-99.99,,,0.01,0,weatherlink.com 1.10,2013-03-25 08:11:00,
2013-03-25 04:26:00,29.9,29.0,29.58,WNW,290,4.0,-999.0,98,-99.99,,,0.01,0,weatherlink.com 1.10,2013-03-25 08:26:00,
2013-03-25 04:41:00,29.9,29.0,29.58,West,281,4.0,-999.0,98,-99.99,,,0.01,0,weatherlink.com 1.10,2013-03-25 08:41:00,
2013-03-25 04:56:00,29.7,29.0,29.58,WNW,286,6.0,-999.0,98,-99.99,,,0.01,0,weatherlink.com 1.10,2013-03-25 08:56:00,
2013-03-25 05:11:00,29.5,29.0,29.58,NW,316,9.0,-999.0,98,-99.99,,,0.01,0,weatherlink.com 1.10,2013-03-25 09:11:00,
2013-03-25 05:26:00,29.3,29.0,29.59,West,261,11.0,-999.0,98,-99.99,,,0.01,0,weatherlink.com 1.10,2013-03-25 09:26:00,
2013-03-25 05:41:00,29.3,29.0,29.59,WNW,284,7.0,-999.0,98,-99.99,,,0.01,0,weatherlink.com 1.10,2013-03-25 09:41:00,
2013-03-25 06:11:00,28.8,28.0,29.60,WSW,246,4.0,-999.0,96,-99.99,,,0.01,0,weatherlink.com 1.10,2013-03-25 10:11:00,
2013-03-25 06:26:00,28.4,27.0,29.62,WNW,301,4.0,-999.0,93,-99.99,,,0.01,0,weatherlink.com 1.10,2013-03-25 10:26:00,
2013-03-25 06:41:00,28.2,25.0,29.62,WNW,301,13.0,-999.0,88,-99.99,,,0.01,0,weatherlink.com 1.10,2013-03-25 10:41:00,
2013-03-25 06:56:00,27.9,23.0,29.63,West,266,8.0,-999.0,82,-99.99,,,0.01,0,weatherlink.com 1.10,2013-03-25 10:56:00,
2013-03-25 07:11:00,27.8,22.0,29.64,West,263,5.0,-999.0,80,-99.99,,,0.01,0,weatherlink.com 1.10,2013-03-25 11:11:00,
2013-03-25 07:26:00,27.8,22.0,29.64,WSW,254,4.0,-999.0,80,-99.99,,,0.01,0,weatherlink.com 1.10,2013-03-25 11:26:00,
2013-03-25 07:41:00,27.7,22.0,29.65,WNW,290,9.0,-999.0,78,-99.99,,,0.01,19,weatherlink.com 1.10,2013-03-25 11:41:00,
2013-03-25 07:56:00,27.5,21.0,29.64,WNW,290,6.0,-999.0,76,-99.99,,,0.01,91,weatherlink.com 1.10,2013-03-25 11:56:00,
2013-03-25 08:11:00,27.8,21.0,29.65,WNW,290,9.0,-999.0,77,-99.99,,,0.01,139,weatherlink.com 1.10,2013-03-25 12:11:00,
2013-03-25 08:26:00,28.0,21.0,29.65,WNW,290,9.0,-999.0,74,-99.99,,,0.01,183,weatherlink.com 1.10,2013-03-25 12:26:00,
2013-03-25 08:45:00,28.7,22.0,29.65,WNW,290,11.0,-999.0,75,-99.99,,,0.01,227,weatherlink.com 1.10,2013-03-25 12:45:00,
2013-03-25 08:56:00,29.4,22.0,29.66,WNW,296,5.0,-999.0,73,-99.99,,,0.01,271,weatherlink.com 1.10,2013-03-25 12:56:00,
2013-03-25 09:11:00,29.9,22.0,29.65,WNW,287,5.0,-999.0,71,-99.99,,,0.01,297,weatherlink.com 1.10,2013-03-25 13:11:00,
2013-03-25 09:26:00,30.1,22.0,29.66,WNW,287,0.0,-999.0,72,-99.99,,,0.01,111,weatherlink.com 1.10,2013-03-25 13:26:00,
2013-03-25 09:42:00,30.5,22.0,29.66,WNW,286,4.0,-999.0,70,-99.99,,,0.01,213,weatherlink.com 1.10,2013-03-25 13:42:00,
2013-03-25 09:56:00,31.4,22.0,29.67,West,271,3.0,-999.0,69,-99.99,,,0.01,309,weatherlink.com 1.10,2013-03-25 13:56:00,
2013-03-25 10:11:00,31.1,21.0,29.68,NNW,333,2.0,-999.0,66,-99.99,,,0.01,142,weatherlink.com 1.10,2013-03-25 14:11:00,
2013-03-25 10:27:00,30.7,21.0,29.68,NNW,329,5.0,-999.0,67,-99.99,,,0.01,137,weatherlink.com 1.10,2013-03-25 14:27:00,
2013-03-25 10:42:00,31.2,21.0,29.69,WNW,287,2.0,-999.0,66,-99.99,,,0.01,148,weatherlink.com 1.10,2013-03-25 14:42:00,
2013-03-25 10:57:00,32.1,21.0,29.68,WNW,284,4.0,-999.0,63,-99.99,,,0.01,137,weatherlink.com 1.10,2013-03-25 14:57:00,
2013-03-25 11:12:00,32.3,20.0,29.70,NNW,330,4.0,-999.0,62,-99.99,,,0.01,169,weatherlink.com 1.10,2013-03-25 15:12:00,
2013-03-25 11:27:00,32.8,20.0,29.70,West,272,5.0,-999.0,59,-99.99,,,0.01,174,weatherlink.com 1.10,2013-03-25 15:27:00,
2013-03-25 11:42:00,33.2,20.0,29.70,WNW,295,2.0,-999.0,58,-99.99,,,0.01,278,weatherlink.com 1.10,2013-03-25 15:42:00,
2013-03-25 11:57:00,32.4,20.0,29.71,West,279,5.0,-999.0,60,-99.99,,,0.01,888,weatherlink.com 1.10,2013-03-25 15:57:00,
2013-03-25 12:12:00,32.8,21.0,29.72,West,279,7.0,-999.0,61,-99.99,,,0.01,199,weatherlink.com 1.10,2013-03-25 16:12:00,
2013-03-25 12:27:00,32.5,20.0,29.73,WNW,294,6.0,-999.0,61,-99.99,,,0.01,250,weatherlink.com 1.10,2013-03-25 16:27:00,
2013-03-25 12:42:00,33.2,22.0,29.72,West,268,9.0,-999.0,63,-99.99,,,0.01,267,weatherlink.com 1.10,2013-03-25 16:42:00,
2013-03-25 12:57:00,34.5,21.0,29.72,NW,315,6.0,-999.0,59,-99.99,,,0.01,366,weatherlink.com 1.10,2013-03-25 16:57:00,
2013-03-25 13:12:00,34.8,20.0,29.72,West,273,6.0,-999.0,56,-99.99,,,0.01,223,weatherlink.com 1.10,2013-03-25 17:12:00,
2013-03-25 13:27:00,35.1,20.0,29.71,WNW,292,17.0,-999.0,54,-99.99,,,0.01,237,weatherlink.com 1.10,2013-03-25 17:27:00,
2013-03-25 13:57:00,36.2,22.0,29.71,WNW,292,14.0,-999.0,56,-99.99,,,0.01,1007,weatherlink.com 1.10,2013-03-25 17:57:00,
2013-03-25 14:12:00,37.9,22.0,29.70,WNW,287,11.0,-999.0,53,-99.99,,,0.01,940,weatherlink.com 1.10,2013-03-25 18:12:00,
2013-03-25 14:27:00,40.2,24.0,29.70,WNW,286,8.0,-999.0,53,-99.99,,,0.01,928,weatherlink.com 1.10,2013-03-25 18:27:00,
2013-03-25 14:42:00,39.2,23.0,29.70,SSW,199,10.0,-999.0,53,-99.99,,,0.01,831,weatherlink.com 1.10,2013-03-25 18:42:00,
2013-03-25 14:57:00,38.7,22.0,29.71,SW,227,7.0,-999.0,52,-99.99,,,0.01,833,weatherlink.com 1.10,2013-03-25 18:57:00,
2013-03-25 15:12:00,39.2,22.0,29.71,West,267,3.0,-999.0,51,-99.99,,,0.01,740,weatherlink.com 1.10,2013-03-25 19:12:00,
2013-03-25 15:27:00,38.1,21.0,29.73,West,280,4.0,-999.0,51,-99.99,,,0.01,800,weatherlink.com 1.10,2013-03-25 19:27:00,
2013-03-25 15:42:00,38.8,22.0,29.73,WNW,294,15.0,-999.0,52,-99.99,,,0.01,821,weatherlink.com 1.10,2013-03-25 19:42:00,
2013-03-25 15:57:00,38.6,23.0,29.73,WNW,289,6.0,-999.0,53,-99.99,,,0.01,327,weatherlink.com 1.10,2013-03-25 19:57:00,
2013-03-25 16:12:00,36.9,21.0,29.74,SW,214,6.0,-999.0,54,-99.99,,,0.01,197,weatherlink.com 1.10,2013-03-25 20:12:00,
2013-03-25 16:27:00,35.2,21.0,29.75,WNW,294,11.0,-999.0,57,-99.99,,,0.01,169,weatherlink.com 1.10,2013-03-25 20:27:00,
2013-03-25 16:42:00,34.4,20.0,29.76,WNW,286,6.0,-999.0,57,-99.99,,,0.01,142,weatherlink.com 1.10,2013-03-25 20:42:00,
2013-03-25 16:57:00,34.0,20.0,29.77,West,273,4.0,-999.0,58,-99.99,,,0.01,90,weatherlink.com 1.10,2013-03-25 20:57:00,
2013-03-25 17:12:00,33.5,20.0,29.77,West,281,6.0,-999.0,59,-99.99,,,0.01,105,weatherlink.com 1.10,2013-03-25 21:12:00,
2013-03-25 17:27:00,33.1,20.0,29.77,WNW,290,11.0,-999.0,60,-99.99,,,0.01,171,weatherlink.com 1.10,2013-03-25 21:27:00,
2013-03-25 17:42:00,33.5,20.0,29.79,WNW,294,8.0,-999.0,58,-99.99,,,0.01,158,weatherlink.com 1.10,2013-03-25 21:42:00,
2013-03-25 17:57:00,34.2,20.0,29.79,WNW,293,5.0,-999.0,57,-99.99,,,0.01,313,weatherlink.com 1.10,2013-03-25 21:57:00,
2013-03-25 18:12:00,34.4,21.0,29.80,WNW,286,9.0,-999.0,59,-99.99,,,0.01,234,weatherlink.com 1.10,2013-03-25 22:12:00,
2013-03-25 18:27:00,33.6,21.0,29.81,WSW,254,7.0,-999.0,60,-99.99,,,0.01,148,weatherlink.com 1.10,2013-03-25 22:27:00,
2013-03-25 18:42:00,33.0,21.0,29.83,WNW,303,9.0,-999.0,61,-99.99,,,0.01,93,weatherlink.com 1.10,2013-03-25 22:42:00,
2013-03-25 18:57:00,32.3,21.0,29.83,SW,232,8.0,-999.0,63,-99.99,,,0.01,81,weatherlink.com 1.10,2013-03-25 22:57:00,
2013-03-25 19:12:00,31.4,20.0,29.85,NW,304,6.0,-999.0,63,-99.99,,,0.01,23,weatherlink.com 1.10,2013-03-25 23:12:00,
2013-03-25 19:27:00,31.0,20.0,29.86,WSW,254,5.0,-999.0,63,-99.99,,,0.01,12,weatherlink.com 1.10,2013-03-25 23:27:00,
2013-03-25 19:42:00,30.2,20.0,29.87,West,263,6.0,-999.0,65,-99.99,,,0.01,0,weatherlink.com 1.10,2013-03-25 23:42:00,
2013-03-25 19:57:00,29.6,20.0,29.87,West,277,5.0,-999.0,67,-99.99,,,0.01,0,weatherlink.com 1.10,2013-03-25 23:57:00,
2013-03-25 20:12:00,29.1,20.0,29.88,WNW,290,6.0,-999.0,68,-99.99,,,0.01,0,weatherlink.com 1.10,2013-03-26 00:12:00,
2013-03-25 20:27:00,28.5,20.0,29.88,West,273,4.0,-999.0,70,-99.99,,,0.01,0,weatherlink.com 1.10,2013-03-26 00:27:00,
2013-03-25 20:42:00,28.1,20.0,29.89,West,259,3.0,-999.0,71,-99.99,,,0.01,0,weatherlink.com 1.10,2013-03-26 00:42:00,
2013-03-25 20:57:00,27.8,20.0,29.90,WSW,238,4.0,-999.0,72,-99.99,,,0.01,0,weatherlink.com 1.10,2013-03-26 00:57:00,
2013-03-25 21:12:00,27.4,20.0,29.90,West,276,4.0,-999.0,73,-99.99,,,0.01,0,weatherlink.com 1.10,2013-03-26 01:12:00,
2013-03-25 21:27:00,27.0,20.0,29.90,West,279,4.0,-999.0,75,-99.99,,,0.01,0,weatherlink.com 1.10,2013-03-26 01:27:00,
2013-03-25 21:42:00,26.7,20.0,29.91,West,273,3.0,-999.0,75,-99.99,,,0.01,0,weatherlink.com 1.10,2013-03-26 01:42:00,
2013-03-25 21:57:00,26.6,20.0,29.92,WNW,289,5.0,-999.0,76,-99.99,,,0.01,0,weatherlink.com 1.10,2013-03-26 01:57:00,
2013-03-25 22:12:00,26.2,20.0,29.93,West,273,3.0,-999.0,77,-99.99,,,0.01,0,weatherlink.com 1.10,2013-03-26 02:12:00,
2013-03-25 22:27:00,26.2,20.0,29.93,West,272,2.0,-999.0,77,-99.99,,,0.01,0,weatherlink.com 1.10,2013-03-26 02:27:00,
2013-03-25 22:42:00,26.2,20.0,29.93,West,281,4.0,-999.0,76,-99.99,,,0.01,0,weatherlink.com 1.10,2013-03-26 02:42:00,
2013-03-25 22:57:00,26.2,20.0,29.93,NW,313,4.0,-999.0,77,-99.99,,,0.01,0,weatherlink.com 1.10,2013-03-26 02:57:00,
2013-03-25 23:12:00,26.2,18.0,29.94,NW,320,2.0,-999.0,72,-99.99,,,0.01,0,weatherlink.com 1.10,2013-03-26 03:12:00,
2013-03-25 23:27:00,26.4,19.0,29.94,WNW,303,1.0,-999.0,73,-99.99,,,0.01,0,weatherlink.com 1.10,2013-03-26 03:27:00,
2013-03-25 23:42:00,26.4,19.0,29.94,WNW,295,3.0,-999.0,72,-99.99,,,0.01,0,weatherlink.com 1.10,2013-03-26 03:42:00,
2013-03-25 23:57:00,26.7,18.0,29.94,WNW,296,5.0,-999.0,70,-99.99,,,0.01,0,weatherlink.com 1.10,2013-03-26 03:57:00,